,,,PA_Meas_PMT16A,,PR_Meas_QMR101_102,,RH_Meas_QMH101,,SR_Meas_QMS101,,TA_Meas_QMH101,,GenWind,,GenWind,
date,time,status,PA,status,PR,status,RH,status,SR,status,TA,status,DirAvg,status,SpdAvg,
2009-07-30, 00:00:05,VALID,1011.95,VALID,0,VALID,84.8441,VALID,0,VALID,24.7074,VALID,186,VALID,0.670313,
2009-07-30, 00:01:05,VALID,1011.92,VALID,0,VALID,84.8289,VALID,0,VALID,24.7055,VALID,185,VALID,0.840234,
2009-07-30, 00:02:05,VALID,1011.91,VALID,0,VALID,84.8365,VALID,0,VALID,24.686,VALID,152,VALID,0.655078,
2009-07-30, 00:03:05,VALID,1011.91,VALID,0,VALID,84.8441,VALID,0,VALID,24.686,VALID,167,VALID,0.78125,
2009-07-30, 00:04:05,VALID,1011.9,VALID,0,VALID,84.9738,VALID,0,VALID,24.6471,VALID,178,VALID,0.760156,
2009-07-30, 00:05:05,VALID,1011.86,VALID,0,VALID,85.0805,VALID,0,VALID,24.6276,VALID,179,VALID,0.846094,
2009-07-30, 00:06:05,VALID,1011.86,VALID,0,VALID,85.3017,VALID,0,VALID,24.6081,VALID,182,VALID,0.910937,
2009-07-30, 00:07:05,VALID,1011.86,VALID,0,VALID,85.3398,VALID,0,VALID,24.5886,VALID,184,VALID,0.739062,
2009-07-30, 00:08:05,VALID,1011.85,VALID,0,VALID,85.4923,VALID,0,VALID,24.5496,VALID,182,VALID,0.992188,
2009-07-30, 00:09:05,VALID,1011.86,VALID,0,VALID,85.4694,VALID,0.105969,VALID,24.5691,VALID,186,VALID,0.742578,
2009-07-30, 00:10:05,VALID,1011.85,VALID,0,VALID,85.5228,VALID,0,VALID,24.5886,VALID,184,VALID,0.858594,
2009-07-30, 00:11:05,VALID,1011.84,VALID,0,VALID,85.5533,VALID,0.105969,VALID,24.5691,VALID,179,VALID,0.823047,
2009-07-30, 00:12:05,VALID,1011.82,VALID,0,VALID,85.5304,VALID,0.105969,VALID,24.5691,VALID,192,VALID,0.853125,
2009-07-30, 00:13:05,VALID,1011.85,VALID,0,VALID,85.6372,VALID,0.105969,VALID,24.5691,VALID,191,VALID,1.24414,
2009-07-30, 00:14:05,VALID,1011.81,VALID,0,VALID,85.5381,VALID,0.105969,VALID,24.6081,VALID,187,VALID,1.19648,
2009-07-30, 00:15:05,VALID,1011.82,VALID,0,VALID,85.4313,VALID,0,VALID,24.6276,VALID,185,VALID,1.37812,
2009-07-30, 00:16:05,VALID,1011.82,VALID,0,VALID,85.2025,VALID,0,VALID,24.6879,VALID,179,VALID,1.0918,
2009-07-30, 00:17:05,VALID,1011.82,VALID,0,VALID,85.2407,VALID,0.105969,VALID,24.6471,VALID,190,VALID,0.578125,
2009-07-30, 00:18:05,VALID,1011.82,VALID,0,VALID,85.3551,VALID,0,VALID,24.6276,VALID,178,VALID,0.897266,
2009-07-30, 00:19:05,VALID,1011.81,VALID,0,VALID,85.4542,VALID,0,VALID,24.6099,VALID,178,VALID,1.08008,
2009-07-30, 00:20:05,VALID,1011.81,VALID,0,VALID,85.561,VALID,0,VALID,24.6081,VALID,191,VALID,0.76875,
2009-07-30, 00:21:05,VALID,1011.79,VALID,0,VALID,85.5838,VALID,0,VALID,24.6081,VALID,201,VALID,1.08281,
2009-07-30, 00:22:05,VALID,1011.81,VALID,0,VALID,85.4847,VALID,0,VALID,24.5886,VALID,184,VALID,0.439063,
2009-07-30, 00:23:05,VALID,1011.82,VALID,0,VALID,85.683,VALID,0,VALID,24.5691,VALID,201,VALID,0.990625,
2009-07-30, 00:24:05,VALID,1011.8,VALID,0,VALID,85.744,VALID,0.105969,VALID,24.5691,VALID,192,VALID,0.880859,
2009-07-30, 00:25:05,VALID,1011.82,VALID,0,VALID,85.744,VALID,0,VALID,24.6081,VALID,184,VALID,1.28086,
2009-07-30, 00:26:05,VALID,1011.8,VALID,0,VALID,85.7592,VALID,0.105969,VALID,24.6081,VALID,191,VALID,0.741406,
2009-07-30, 00:27:05,VALID,1011.77,VALID,0,VALID,85.7668,VALID,0,VALID,24.6081,VALID,178,VALID,1.41445,
2009-07-30, 00:28:05,VALID,1011.77,VALID,0,VALID,85.6906,VALID,0,VALID,24.6276,VALID,197,VALID,0.844141,
2009-07-30, 00:29:05,VALID,1011.77,VALID,0,VALID,85.622,VALID,0,VALID,24.6276,VALID,175,VALID,1.1293,
2009-07-30, 00:30:05,VALID,1011.73,VALID,0,VALID,85.7058,VALID,0.105969,VALID,24.6081,VALID,189,VALID,0.664063,
2009-07-30, 00:31:05,VALID,1011.73,VALID,0,VALID,85.8126,VALID,0.105969,VALID,24.5691,VALID,189,VALID,0.816797,
2009-07-30, 00:32:05,VALID,1011.75,VALID,0,VALID,86.1253,VALID,0.105969,VALID,24.5496,VALID,180,VALID,1.41992,
2009-07-30, 00:33:05,VALID,1011.72,VALID,0,VALID,86.1558,VALID,0.105969,VALID,24.5496,VALID,199,VALID,1.13437,
2009-07-30, 00:34:05,VALID,1011.72,VALID,0,VALID,86.232,VALID,0,VALID,24.5496,VALID,194,VALID,1.51758,
2009-07-30, 00:35:05,VALID,1011.72,VALID,0,VALID,86.0338,VALID,0,VALID,24.5886,VALID,183,VALID,1.05586,
2009-07-30, 00:36:05,VALID,1011.71,VALID,0,VALID,86.1481,VALID,0,VALID,24.5691,VALID,171,VALID,0.94375,
2009-07-30, 00:37:05,VALID,1011.69,VALID,0,VALID,86.1558,VALID,0,VALID,24.5691,VALID,180,VALID,0.810547,
2009-07-30, 00:38:05,VALID,1011.69,VALID,0,VALID,86.1558,VALID,0,VALID,24.5496,VALID,186,VALID,0.679688,
2009-07-30, 00:39:05,VALID,1011.67,VALID,0,VALID,86.2396,VALID,0,VALID,24.5691,VALID,157,VALID,1.33008,
2009-07-30, 00:40:05,VALID,1011.63,VALID,0,VALID,86.0719,VALID,0.105969,VALID,24.5283,VALID,183,VALID,0.788281,
2009-07-30, 00:41:05,VALID,1011.65,VALID,0,VALID,86.2854,VALID,0.105969,VALID,24.5496,VALID,194,VALID,0.720312,
2009-07-30, 00:42:05,VALID,1011.65,VALID,0,VALID,86.3693,VALID,0.105969,VALID,24.5496,VALID,178,VALID,0.960938,
2009-07-30, 00:43:05,VALID,1011.62,VALID,0,VALID,86.3922,VALID,0.105969,VALID,24.5496,VALID,186,VALID,1.34687,
2009-07-30, 00:44:05,VALID,1011.63,VALID,0,VALID,86.2091,VALID,0.105969,VALID,24.5691,VALID,154,VALID,0.691797,
2009-07-30, 00:45:05,VALID,1011.62,VALID,0,VALID,86.3922,VALID,0,VALID,24.5496,VALID,186,VALID,1.48359,
2009-07-30, 00:46:05,VALID,1011.63,VALID,0,VALID,86.3769,VALID,0,VALID,24.5478,VALID,185,VALID,1.02344,
2009-07-30, 00:47:05,VALID,1011.62,VALID,0,VALID,86.3159,VALID,0.105969,VALID,24.5886,VALID,191,VALID,1.62266,
2009-07-30, 00:48:05,VALID,1011.62,VALID,0,VALID,86.0871,VALID,0.105969,VALID,24.5867,VALID,181,VALID,1.15195,
2009-07-30, 00:49:05,VALID,1011.6,VALID,0,VALID,86.1176,VALID,0.105969,VALID,24.6081,VALID,183,VALID,1.51172,
2009-07-30, 00:50:05,VALID,1011.61,VALID,0,VALID,86.11,VALID,0,VALID,24.5886,VALID,185,VALID,0.807031,
2009-07-30, 00:51:05,VALID,1011.59,VALID,0,VALID,86.1329,VALID,0,VALID,24.5886,VALID,155,VALID,0.8375,
2009-07-30, 00:52:05,VALID,1011.56,VALID,0,VALID,86.1939,VALID,0,VALID,24.5691,VALID,185,VALID,0.911328,
2009-07-30, 00:53:05,VALID,1011.54,VALID,0,VALID,86.2854,VALID,0.105969,VALID,24.5478,VALID,172,VALID,1.15273,
2009-07-30, 00:54:05,VALID,1011.54,VALID,0,VALID,86.2854,VALID,0.105969,VALID,24.5691,VALID,191,VALID,1.04023,
2009-07-30, 00:55:05,VALID,1011.49,VALID,0,VALID,86.3617,VALID,0.105969,VALID,24.5886,VALID,196,VALID,1.85625,
2009-07-30, 00:56:05,VALID,1011.48,VALID,0,VALID,86.3159,VALID,0,VALID,24.6081,VALID,172,VALID,1.91172,
2009-07-30, 00:57:05,VALID,1011.45,VALID,0,VALID,86.2168,VALID,0,VALID,24.6294,VALID,182,VALID,1.40391,
2009-07-30, 00:58:05,VALID,1011.45,VALID,0,VALID,86.293,VALID,0,VALID,24.6081,VALID,188,VALID,1.14453,
2009-07-30, 00:59:05,VALID,1011.47,VALID,0,VALID,86.3464,VALID,0,VALID,24.6081,VALID,199,VALID,1.2668,
2009-07-30, 01:00:05,VALID,1011.44,VALID,0,VALID,86.3235,VALID,0.105969,VALID,24.6081,VALID,196,VALID,1.35938,
2009-07-30, 01:01:05,VALID,1011.44,VALID,0,VALID,86.3617,VALID,0,VALID,24.6081,VALID,190,VALID,2.13633,
2009-07-30, 01:02:05,VALID,1011.46,VALID,0,VALID,86.1863,VALID,0,VALID,24.6666,VALID,183,VALID,1.44492,
2009-07-30, 01:03:05,VALID,1011.45,VALID,0,VALID,86.11,VALID,0,VALID,24.6666,VALID,192,VALID,1.46797,
2009-07-30, 01:04:05,VALID,1011.46,VALID,0,VALID,86.0643,VALID,0,VALID,24.686,VALID,178,VALID,1.9332,
2009-07-30, 01:05:05,VALID,1011.48,VALID,0,VALID,86.0261,VALID,0,VALID,24.686,VALID,187,VALID,1.09258,
2009-07-30, 01:06:04,VALID,1011.49,VALID,0,VALID,86.0261,VALID,0.105969,VALID,24.686,VALID,189,VALID,0.930078,
2009-07-30, 01:07:04,VALID,1011.5,VALID,0,VALID,86.1253,VALID,0,VALID,24.686,VALID,204,VALID,1.09336,
2009-07-30, 01:08:04,VALID,1011.49,VALID,0,VALID,86.1405,VALID,0,VALID,24.686,VALID,184,VALID,1.60977,
2009-07-30, 01:09:04,VALID,1011.51,VALID,0,VALID,86.1329,VALID,0,VALID,24.686,VALID,200,VALID,1.19414,
2009-07-30, 01:10:04,VALID,1011.49,VALID,0,VALID,86.1634,VALID,0.105969,VALID,24.686,VALID,191,VALID,0.734375,
2009-07-30, 01:11:04,VALID,1011.47,VALID,0,VALID,86.1863,VALID,0,VALID,24.686,VALID,190,VALID,1.68477,
2009-07-30, 01:12:04,VALID,1011.48,VALID,0,VALID,86.2015,VALID,0.105969,VALID,24.686,VALID,189,VALID,0.91875,
2009-07-30, 01:13:04,VALID,1011.45,VALID,0,VALID,86.232,VALID,0,VALID,24.686,VALID,197,VALID,1.13633,
2009-07-30, 01:14:04,VALID,1011.45,VALID,0,VALID,86.2549,VALID,0,VALID,24.6666,VALID,184,VALID,1.22227,
2009-07-30, 01:15:04,VALID,1011.41,VALID,0,VALID,86.3235,VALID,0.105969,VALID,24.6666,VALID,175,VALID,1.56094,
2009-07-30, 01:16:04,VALID,1011.42,VALID,0,VALID,86.2625,VALID,0,VALID,24.6879,VALID,192,VALID,1.23164,
2009-07-30, 01:17:04,VALID,1011.39,VALID,0,VALID,86.2244,VALID,0,VALID,24.7074,VALID,197,VALID,1.82109,
2009-07-30, 01:18:04,VALID,1011.38,VALID,0,VALID,86.1253,VALID,0,VALID,24.7074,VALID,202,VALID,1.34844,
2009-07-30, 01:19:04,VALID,1011.39,VALID,0,VALID,85.988,VALID,0,VALID,24.7659,VALID,200,VALID,1.48711,
2009-07-30, 01:20:04,VALID,1011.38,VALID,0,VALID,85.9422,VALID,0,VALID,24.7464,VALID,185,VALID,1.41172,
2009-07-30, 01:21:04,VALID,1011.37,VALID,0,VALID,86.0338,VALID,0,VALID,24.7464,VALID,170,VALID,1.25117,
2009-07-30, 01:22:04,VALID,1011.36,VALID,0,VALID,86.0338,VALID,0,VALID,24.7872,VALID,193,VALID,1.44219,
2009-07-30, 01:23:04,VALID,1011.36,VALID,0,VALID,86.0948,VALID,0,VALID,24.7269,VALID,203,VALID,1.29688,
2009-07-30, 01:24:04,VALID,1011.37,VALID,0,VALID,86.1405,VALID,0,VALID,24.7483,VALID,208,VALID,1.32227,
2009-07-30, 01:25:04,VALID,1011.34,VALID,0,VALID,86.1176,VALID,0,VALID,24.7269,VALID,203,VALID,1.85859,
2009-07-30, 01:26:04,VALID,1011.32,VALID,0,VALID,86.0414,VALID,0,VALID,24.7464,VALID,195,VALID,1.59531,
2009-07-30, 01:27:04,VALID,1011.31,VALID,0,VALID,85.988,VALID,0,VALID,24.7659,VALID,189,VALID,1.79141,
2009-07-30, 01:28:04,VALID,1011.28,VALID,0,VALID,85.9346,VALID,0,VALID,24.7854,VALID,195,VALID,1.81367,
2009-07-30, 01:29:04,VALID,1011.23,VALID,0,VALID,85.9117,VALID,0,VALID,24.7854,VALID,184,VALID,1.87422,
2009-07-30, 01:30:04,VALID,1011.26,VALID,0,VALID,85.8889,VALID,0,VALID,24.7854,VALID,203,VALID,1.07344,
2009-07-30, 01:31:04,VALID,1011.27,VALID,0,VALID,85.8507,VALID,0.105969,VALID,24.8049,VALID,199,VALID,1.21328,
2009-07-30, 01:32:04,VALID,1011.24,VALID,0,VALID,85.866,VALID,0.105969,VALID,24.7835,VALID,201,VALID,1.20859,
2009-07-30, 01:33:04,VALID,1011.21,VALID,0,VALID,85.805,VALID,0,VALID,24.803,VALID,183,VALID,2.53945,
2009-07-30, 01:34:04,VALID,1011.22,VALID,0,VALID,85.7135,VALID,0,VALID,24.8225,VALID,205,VALID,1.76289,
2009-07-30, 01:35:04,VALID,1011.22,VALID,0,VALID,85.7287,VALID,0.105969,VALID,24.8225,VALID,194,VALID,2.03945,
2009-07-30, 01:36:04,VALID,1011.23,VALID,0,VALID,85.6677,VALID,0.105969,VALID,24.8225,VALID,189,VALID,1.32305,
2009-07-30, 01:37:04,VALID,1011.21,VALID,0,VALID,85.5991,VALID,0.105969,VALID,24.842,VALID,188,VALID,1.44805,
2009-07-30, 01:38:04,VALID,1011.2,VALID,0,VALID,85.7363,VALID,0.105969,VALID,24.8225,VALID,187,VALID,1.59453,
2009-07-30, 01:39:04,VALID,1011.22,VALID,0,VALID,85.8126,VALID,0.105969,VALID,24.803,VALID,189,VALID,1.60547,
2009-07-30, 01:40:04,VALID,1011.27,VALID,0,VALID,85.9117,VALID,0.105969,VALID,24.7835,VALID,176,VALID,1.32109,
2009-07-30, 01:41:04,VALID,1011.25,VALID,0,VALID,86.049,VALID,0,VALID,24.7445,VALID,173,VALID,1.20977,
2009-07-30, 01:42:04,VALID,1011.27,VALID,0,VALID,86.1329,VALID,0.105969,VALID,24.7445,VALID,202,VALID,1.14023,
2009-07-30, 01:43:04,VALID,1011.26,VALID,0,VALID,86.1863,VALID,0,VALID,24.725,VALID,203,VALID,1.57305,
2009-07-30, 01:44:04,VALID,1011.27,VALID,0,VALID,85.9194,VALID,0,VALID,24.764,VALID,177,VALID,2.43203,
2009-07-30, 01:45:04,VALID,1011.27,VALID,0,VALID,85.8889,VALID,0.105969,VALID,24.7835,VALID,194,VALID,2.15273,
2009-07-30, 01:46:04,VALID,1011.26,VALID,0,VALID,85.8889,VALID,0,VALID,24.7835,VALID,193,VALID,1.48906,
2009-07-30, 01:47:04,VALID,1011.26,VALID,0,VALID,85.9346,VALID,0,VALID,24.7854,VALID,207,VALID,1.22187,
2009-07-30, 01:48:04,VALID,1011.28,VALID,0,VALID,85.9194,VALID,0,VALID,24.7659,VALID,175,VALID,1.85195,
2009-07-30, 01:49:04,VALID,1011.25,VALID,0,VALID,86.0109,VALID,0,VALID,24.7659,VALID,189,VALID,1.7832,
2009-07-30, 01:50:04,VALID,1011.23,VALID,0,VALID,86.0261,VALID,0,VALID,24.7445,VALID,183,VALID,1.24102,
2009-07-30, 01:51:04,VALID,1011.24,VALID,0,VALID,85.9956,VALID,0,VALID,24.7659,VALID,200,VALID,1.96953,
2009-07-30, 01:52:04,VALID,1011.22,VALID,0,VALID,85.9346,VALID,0,VALID,24.7854,VALID,164,VALID,0.883594,
2009-07-30, 01:53:04,VALID,1011.22,VALID,0,VALID,85.9956,VALID,0,VALID,24.7659,VALID,191,VALID,2.04219,
2009-07-30, 01:54:04,VALID,1011.21,VALID,0,VALID,85.8431,VALID,0,VALID,24.8049,VALID,199,VALID,2.31758,
2009-07-30, 01:55:04,VALID,1011.19,VALID,0,VALID,85.8736,VALID,0,VALID,24.7835,VALID,178,VALID,1.16367,
2009-07-30, 01:56:04,VALID,1011.21,VALID,0,VALID,86.0566,VALID,0,VALID,24.7445,VALID,190,VALID,1.98984,
2009-07-30, 01:57:04,VALID,1011.19,VALID,0,VALID,86.1558,VALID,0,VALID,24.725,VALID,196,VALID,1.42734,
2009-07-30, 01:58:04,VALID,1011.17,VALID,0,VALID,86.2168,VALID,0,VALID,24.725,VALID,190,VALID,0.842969,
2009-07-30, 01:59:04,VALID,1011.17,VALID,0,VALID,86.2244,VALID,0,VALID,24.7055,VALID,183,VALID,1.64102,
2009-07-30, 02:00:04,VALID,1011.21,VALID,0,VALID,86.2701,VALID,0,VALID,24.7055,VALID,183,VALID,2.59727,
2009-07-30, 02:01:04,VALID,1011.17,VALID,0,VALID,86.2015,VALID,0.105969,VALID,24.7231,VALID,187,VALID,1.83008,
2009-07-30, 02:02:04,VALID,1011.15,VALID,0,VALID,86.0414,VALID,0.105969,VALID,24.764,VALID,187,VALID,1.64727,
2009-07-30, 02:03:04,VALID,1011.15,VALID,0,VALID,85.8584,VALID,0.105969,VALID,24.7621,VALID,180,VALID,2.08281,
2009-07-30, 02:04:04,VALID,1011.16,VALID,0,VALID,85.8126,VALID,0.105969,VALID,24.803,VALID,176,VALID,1.42109,
2009-07-30, 02:05:04,VALID,1011.12,VALID,0,VALID,85.927,VALID,0.105969,VALID,24.7426,VALID,197,VALID,1.43398,
2009-07-30, 02:06:04,VALID,1011.13,VALID,0,VALID,85.9575,VALID,0.105969,VALID,24.7426,VALID,171,VALID,1.42852,
2009-07-30, 02:07:04,VALID,1011.1,VALID,0,VALID,85.927,VALID,0.105969,VALID,24.725,VALID,178,VALID,1.79688,
2009-07-30, 02:08:04,VALID,1011.1,VALID,0,VALID,85.6525,VALID,0.211938,VALID,24.803,VALID,176,VALID,1.87305,
2009-07-30, 02:09:04,VALID,1011.11,VALID,0,VALID,85.6143,VALID,0.105969,VALID,24.7816,VALID,156,VALID,1.66875,
2009-07-30, 02:10:04,VALID,1011.11,VALID,0,VALID,85.7745,VALID,0.105969,VALID,24.764,VALID,175,VALID,0.890625,
2009-07-30, 02:11:04,VALID,1011.12,VALID,0,VALID,86.0414,VALID,0.105969,VALID,24.7037,VALID,187,VALID,1.85781,
2009-07-30, 02:12:04,VALID,1011.11,VALID,0,VALID,86.2015,VALID,0.105969,VALID,24.7055,VALID,185,VALID,1.20977,
2009-07-30, 02:13:04,VALID,1011.09,VALID,0,VALID,86.1253,VALID,0.105969,VALID,24.6452,VALID,177,VALID,1.75742,
2009-07-30, 02:14:04,VALID,1011.1,VALID,0,VALID,86.3083,VALID,0.105969,VALID,24.6666,VALID,189,VALID,1.38555,
2009-07-30, 02:15:04,VALID,1011.09,VALID,0,VALID,86.3159,VALID,0.105969,VALID,24.6666,VALID,181,VALID,1.0418,
2009-07-30, 02:16:04,VALID,1011.06,VALID,0,VALID,86.3159,VALID,0.105969,VALID,24.6471,VALID,176,VALID,1.57422,
2009-07-30, 02:17:04,VALID,1011.06,VALID,0,VALID,86.3769,VALID,0,VALID,24.6471,VALID,203,VALID,1.14414,
2009-07-30, 02:18:04,VALID,1011.06,VALID,0,VALID,86.4837,VALID,0,VALID,24.6276,VALID,197,VALID,1.18906,
2009-07-30, 02:19:04,VALID,1011.07,VALID,0,VALID,86.6591,VALID,0,VALID,24.6081,VALID,189,VALID,1.02031,
2009-07-30, 02:20:04,VALID,1011.05,VALID,0,VALID,86.804,VALID,0.105969,VALID,24.5691,VALID,186,VALID,1.23477,
2009-07-30, 02:21:04,VALID,1011.05,VALID,0,VALID,86.926,VALID,0,VALID,24.571,VALID,203,VALID,0.987109,
2009-07-30, 02:22:04,VALID,1011.05,VALID,0,VALID,87.0251,VALID,0,VALID,24.532,VALID,177,VALID,1.48203,
2009-07-30, 02:23:04,VALID,1011.06,VALID,0,VALID,87.0632,VALID,0.105969,VALID,24.5301,VALID,204,VALID,1.01992,
2009-07-30, 02:24:04,VALID,1011.05,VALID,0,VALID,87.1395,VALID,0,VALID,24.4911,VALID,184,VALID,0.940625,
2009-07-30, 02:25:04,VALID,1011.02,VALID,0,VALID,87.1624,VALID,0,VALID,24.4717,VALID,164,VALID,1.04961,
2009-07-30, 02:26:04,VALID,1011.06,VALID,0,VALID,87.2996,VALID,0,VALID,24.4522,VALID,182,VALID,0.862109,
2009-07-30, 02:27:04,VALID,1011.03,VALID,0,VALID,87.4064,VALID,0,VALID,24.4327,VALID,171,VALID,1.20391,
2009-07-30, 02:28:04,VALID,1011.06,VALID,0,VALID,87.5131,VALID,0,VALID,24.4132,VALID,202,VALID,0.708594,
2009-07-30, 02:29:04,VALID,1011.03,VALID,0,VALID,87.5742,VALID,0,VALID,24.415,VALID,187,VALID,1.32109,
2009-07-30, 02:30:04,VALID,1011.05,VALID,0,VALID,87.5589,VALID,0,VALID,24.3937,VALID,187,VALID,1.18125,
2009-07-30, 02:31:04,VALID,1011.04,VALID,0,VALID,87.4598,VALID,0.105969,VALID,24.3937,VALID,149,VALID,1.01563,
2009-07-30, 02:32:04,VALID,1011.06,VALID,0,VALID,87.4903,VALID,0,VALID,24.3937,VALID,188,VALID,0.7625,
2009-07-30, 02:33:04,VALID,1011.05,VALID,0,VALID,87.5894,VALID,0.105969,VALID,24.3529,VALID,186,VALID,0.658594,
2009-07-30, 02:34:04,VALID,1011.08,VALID,0,VALID,87.7724,VALID,0.105969,VALID,24.3547,VALID,186,VALID,0.644141,
2009-07-30, 02:35:04,VALID,1011.1,VALID,0,VALID,87.8639,VALID,0.105969,VALID,24.3547,VALID,167,VALID,0.788281,
2009-07-30, 02:36:04,VALID,1011.11,VALID,0,VALID,87.8029,VALID,0.105969,VALID,24.3352,VALID,175,VALID,0.971875,
2009-07-30, 02:37:04,VALID,1011.13,VALID,0,VALID,87.8029,VALID,0.105969,VALID,24.3352,VALID,187,VALID,1.09766,
2009-07-30, 02:38:04,VALID,1011.14,VALID,0,VALID,87.8029,VALID,0.105969,VALID,24.3352,VALID,170,VALID,1.15898,
2009-07-30, 02:39:04,VALID,1011.15,VALID,0,VALID,87.7419,VALID,0.105969,VALID,24.2963,VALID,170,VALID,0.858984,
2009-07-30, 02:40:04,VALID,1011.1,VALID,0,VALID,87.8487,VALID,0.105969,VALID,24.2963,VALID,185,VALID,1.07891,
2009-07-30, 02:41:04,VALID,1011.15,VALID,0,VALID,87.78,VALID,0.105969,VALID,24.2749,VALID,177,VALID,0.767187,
2009-07-30, 02:42:04,VALID,1011.15,VALID,0,VALID,87.8487,VALID,0.105969,VALID,24.3158,VALID,172,VALID,1.0043,
2009-07-30, 02:43:04,VALID,1011.14,VALID,0,VALID,87.8639,VALID,0.105969,VALID,24.3158,VALID,179,VALID,0.607813,
2009-07-30, 02:44:04,VALID,1011.15,VALID,0,VALID,87.9554,VALID,0.105969,VALID,24.2555,VALID,184,VALID,0.907812,
2009-07-30, 02:45:04,VALID,1011.17,VALID,0,VALID,87.9936,VALID,0.105969,VALID,24.2573,VALID,187,VALID,0.253125,
2009-07-30, 02:46:04,VALID,1011.15,VALID,0,VALID,88.1995,VALID,0,VALID,24.1988,VALID,186,VALID,0.722656,
2009-07-30, 02:47:04,VALID,1011.17,VALID,0,VALID,88.3977,VALID,0.105969,VALID,24.1988,VALID,180,VALID,0.901563,
2009-07-30, 02:48:04,VALID,1011.14,VALID,0,VALID,88.3977,VALID,0.105969,VALID,24.2183,VALID,176,VALID,1.53594,
2009-07-30, 02:49:04,VALID,1011.14,VALID,0,VALID,88.2452,VALID,0.105969,VALID,24.197,VALID,179,VALID,0.852734,
2009-07-30, 02:50:04,VALID,1011.16,VALID,0,VALID,88.2376,VALID,0.105969,VALID,24.1988,VALID,164,VALID,1.52148,
2009-07-30, 02:51:04,VALID,1011.11,VALID,0,VALID,88.2757,VALID,0.105969,VALID,24.1775,VALID,190,VALID,1.15273,
2009-07-30, 02:52:04,VALID,1011.13,VALID,0,VALID,88.4054,VALID,0.105969,VALID,24.1988,VALID,175,VALID,1.50312,
2009-07-30, 02:53:04,VALID,1011.12,VALID,0,VALID,88.4511,VALID,0.105969,VALID,24.1988,VALID,171,VALID,0.978516,
2009-07-30, 02:54:04,VALID,1011.17,VALID,0,VALID,88.352,VALID,0,VALID,24.1775,VALID,169,VALID,1.59687,
2009-07-30, 02:55:04,VALID,1011.15,VALID,0,VALID,88.3749,VALID,0,VALID,24.1988,VALID,192,VALID,1.67813,
2009-07-30, 02:56:04,VALID,1011.14,VALID,0,VALID,88.4206,VALID,0.105969,VALID,24.2183,VALID,168,VALID,1.80469,
2009-07-30, 02:57:04,VALID,1011.15,VALID,0,VALID,88.2757,VALID,0,VALID,24.2183,VALID,172,VALID,1.56758,
2009-07-30, 02:58:04,VALID,1011.16,VALID,0,VALID,88.2833,VALID,0,VALID,24.1988,VALID,177,VALID,1.8043,
2009-07-30, 02:59:04,VALID,1011.16,VALID,0,VALID,88.3062,VALID,0.105969,VALID,24.1988,VALID,173,VALID,1.42539,
2009-07-30, 03:00:04,VALID,1011.15,VALID,0,VALID,88.4054,VALID,0,VALID,24.158,VALID,177,VALID,1.23398,
2009-07-30, 03:01:04,VALID,1011.17,VALID,0,VALID,88.474,VALID,0,VALID,24.1599,VALID,177,VALID,1.27852,
2009-07-30, 03:02:04,VALID,1011.15,VALID,0,VALID,88.5274,VALID,0.105969,VALID,24.1793,VALID,172,VALID,1.49688,
2009-07-30, 03:03:04,VALID,1011.13,VALID,0,VALID,88.3367,VALID,0,VALID,24.2183,VALID,168,VALID,1.18398,
2009-07-30, 03:04:04,VALID,1011.17,VALID,0,VALID,88.2223,VALID,0.105969,VALID,24.2165,VALID,179,VALID,1.07109,
2009-07-30, 03:05:04,VALID,1011.17,VALID,0,VALID,88.2223,VALID,0.105969,VALID,24.2183,VALID,183,VALID,1.2375,
2009-07-30, 03:06:04,VALID,1011.13,VALID,0,VALID,88.0775,VALID,0,VALID,24.2378,VALID,175,VALID,1.47891,
2009-07-30, 03:07:04,VALID,1011.15,VALID,0,VALID,87.9936,VALID,0.105969,VALID,24.236,VALID,176,VALID,1.43672,
2009-07-30, 03:08:04,VALID,1011.14,VALID,0,VALID,87.8487,VALID,0,VALID,24.2749,VALID,184,VALID,1.73438,
2009-07-30, 03:09:04,VALID,1011.2,VALID,0,VALID,87.7648,VALID,0.105969,VALID,24.3158,VALID,187,VALID,1.94062,
2009-07-30, 03:10:04,VALID,1011.21,VALID,0,VALID,87.5589,VALID,0,VALID,24.3352,VALID,178,VALID,1.89883,
2009-07-30, 03:11:04,VALID,1011.21,VALID,0,VALID,87.475,VALID,0.105969,VALID,24.3352,VALID,195,VALID,1.06406,
2009-07-30, 03:12:04,VALID,1011.25,VALID,0,VALID,87.5208,VALID,0.105969,VALID,24.3352,VALID,172,VALID,1.83906,
2009-07-30, 03:13:04,VALID,1011.26,VALID,0,VALID,87.4674,VALID,0,VALID,24.3547,VALID,182,VALID,2.1293,
2009-07-30, 03:14:04,VALID,1011.29,VALID,0,VALID,87.2996,VALID,0,VALID,24.3742,VALID,158,VALID,2.44219,
2009-07-30, 03:15:04,VALID,1011.31,VALID,0,VALID,87.1776,VALID,0.105969,VALID,24.3937,VALID,181,VALID,1.32461,
2009-07-30, 03:16:04,VALID,1011.32,VALID,0,VALID,87.2081,VALID,0,VALID,24.3566,VALID,165,VALID,1.25977,
2009-07-30, 03:17:04,VALID,1011.33,VALID,0,VALID,87.2691,VALID,0,VALID,24.3566,VALID,184,VALID,0.943359,
2009-07-30, 03:18:04,VALID,1011.33,VALID,0,VALID,87.3606,VALID,0,VALID,24.3371,VALID,176,VALID,1.76836,
2009-07-30, 03:19:04,VALID,1011.35,VALID,0,VALID,87.4216,VALID,0,VALID,24.3176,VALID,176,VALID,1.71719,
2009-07-30, 03:20:04,VALID,1011.37,VALID,0,VALID,87.3454,VALID,0,VALID,24.3176,VALID,166,VALID,1.41758,
2009-07-30, 03:21:04,VALID,1011.38,VALID,0,VALID,87.292,VALID,0,VALID,24.3352,VALID,180,VALID,1.43203,
2009-07-30, 03:22:04,VALID,1011.4,VALID,0,VALID,87.2844,VALID,0,VALID,24.3371,VALID,172,VALID,1.54844,
2009-07-30, 03:23:04,VALID,1011.4,VALID,0,VALID,87.17,VALID,0,VALID,24.3566,VALID,154,VALID,1.35898,
2009-07-30, 03:24:04,VALID,1011.4,VALID,0,VALID,87.0404,VALID,0,VALID,24.3761,VALID,165,VALID,1.89023,
2009-07-30, 03:25:04,VALID,1011.41,VALID,0,VALID,87.0709,VALID,0,VALID,24.3566,VALID,170,VALID,0.936719,
2009-07-30, 03:26:04,VALID,1011.39,VALID,0,VALID,87.2767,VALID,0,VALID,24.3176,VALID,188,VALID,1.25078,
2009-07-30, 03:27:04,VALID,1011.38,VALID,0,VALID,87.2996,VALID,0,VALID,24.2768,VALID,160,VALID,2.20313,
2009-07-30, 03:28:04,VALID,1011.41,VALID,0,VALID,87.2157,VALID,0,VALID,24.3371,VALID,171,VALID,1.44062,
2009-07-30, 03:29:04,VALID,1011.38,VALID,0,VALID,87.1166,VALID,0,VALID,24.3176,VALID,172,VALID,1.3293,
2009-07-30, 03:30:04,VALID,1011.36,VALID,0,VALID,87.109,VALID,0,VALID,24.2963,VALID,184,VALID,0.975391,
2009-07-30, 03:31:04,VALID,1011.37,VALID,0,VALID,87.1395,VALID,0,VALID,24.2963,VALID,182,VALID,1.20703,
2009-07-30, 03:32:04,VALID,1011.4,VALID,0,VALID,87.2844,VALID,0.105969,VALID,24.2749,VALID,173,VALID,1.66562,
2009-07-30, 03:33:04,VALID,1011.41,VALID,0,VALID,87.2005,VALID,0,VALID,24.2963,VALID,171,VALID,1.64648,
2009-07-30, 03:34:04,VALID,1011.42,VALID,0,VALID,87.2234,VALID,0.105969,VALID,24.2749,VALID,178,VALID,1.09336,
2009-07-30, 03:35:04,VALID,1011.42,VALID,0,VALID,87.3759,VALID,0.105969,VALID,24.2768,VALID,156,VALID,1.76641,
2009-07-30, 03:36:04,VALID,1011.45,VALID,0,VALID,87.3835,VALID,0.105969,VALID,24.236,VALID,159,VALID,1.53164,
2009-07-30, 03:37:04,VALID,1011.43,VALID,0,VALID,87.4826,VALID,0,VALID,24.2378,VALID,172,VALID,1.58281,
2009-07-30, 03:38:04,VALID,1011.45,VALID,0,VALID,87.5208,VALID,0.105969,VALID,24.1988,VALID,173,VALID,1.32813,
2009-07-30, 03:39:04,VALID,1011.49,VALID,0,VALID,87.6352,VALID,0.105969,VALID,24.1988,VALID,157,VALID,1.33516,